Regional Weather Roundup
Issued by NWS State College, PA

Home | Current Version | Previous Version | Graphics & Text | Print | Product List | Glossary On
Versions: 1 2 3 4 5 6 7 8 9 10 11 12 13 14 15 16 17 18 19 20 21 22 23 24 25 26 27 28 29 30 31 32 33 34 35 36 37 38 39 40 41 42 43 44 45 46 47 48 49 50
000
ASUS41 KCTP 221303
RWRCTP
REGIONAL WEATHER ROUNDUP
NATIONAL WEATHER SERVICE STATE COLLEGE PA
900 AM EDT FRI SEP 22 2017

Note: "fair" indicates few or no clouds below 12,000 feet with no
significant weather and/or obstructions to visibility.

* = STATION THAT DOES NOT REPORT PRECIPITATION /E.G. RAIN...SNOW...ETC/
    THUNDER OR FOG.

PAZ002>004-007>009-013>016-020>023-029>032-221400-
WESTERN PENNSYLVANIA

CITY           SKY/WX    TMP DP  RH WIND       PRES   REMARKS
ERIE           CLOUDY    69  62  78 CALM      30.15S
MEADVILLE      CLOUDY    68  63  84 E3        30.17S
FRANKLIN*      CLOUDY    63  60  90 CALM      30.18S
NEW CASTLE     FAIR      63  62  97 CALM      30.16S
BEAVER COUNTY  SUNNY     68  59  73 CALM      30.16R
BUTLER*        SUNNY     59  58  96 NE3       30.16S
PITTSBURGH INT CLOUDY    62  59  90 CALM      30.15S
PITTSBURGH     CLOUDY    64  61  90 CALM      30.15R
INDIANA*       SUNNY     63  61  94 CALM      30.18S
LATROBE        PTSUNNY   59  59 100 CALM      30.17R
WASHINGTON CO* CLOUDY    57  55  94 CALM      30.16R VSB 1/2
$$

PAZ004>006-010>012-017>019-024>028-033>037-041-042-045-046-049>053-221400-
CENTRAL PENNSYLVANIA

CITY           SKY/WX    TMP DP  RH WIND       PRES   REMARKS
BRADFORD       FOG       54  54 100 CALM      30.19R VSB 1/2
DUBOIS         CLOUDY    62  58  86 CALM      30.16S
CLEARFIELD     CLOUDY    57  57 100 CALM      30.17R FOG
JOHNSTOWN      CLOUDY    63  59  87 CALM      30.18S
ALTOONA        MOSUNNY   64  61  90 CALM      30.16S
STATE COLLEGE  SUNNY     63  63 100 CALM      30.15R
WILLIAMSPORT   MOSUNNY   66  64  93 CALM      30.11R
SELINSGROVE    MOSUNNY   65  64  97 CALM      30.12R
FT INDIANTOWN  PTSUNNY   72  64  77 CALM      30.09R
CAPITAL CITY   MOSUNNY   69  62  78 W5        30.09R
HARRISBURG     PTSUNNY   70  66  87 NW7       30.08R
YORK           CLOUDY    64  64 100 CALM      30.09R
$$

PAZ038>040-043-044-047-048-054-055-060>062-067>071-221400-
EASTERN PENNSYLVANIA

CITY           SKY/WX    TMP DP  RH WIND       PRES   REMARKS
SCRANTON       MOSUNNY   63  60  90 CALM      30.12R
MOUNT POCONO   MOSUNNY   66  55  67 N6        30.11R
ALLENTOWN      CLOUDY    67  61  81 NW6       30.07S HAZE
QUAKERTOWN*    MOSUNNY   66  63  88 N6        30.08S
READING        CLOUDY    69  66  90 NW5       30.08R
LANCASTER      CLOUDY    67  66  97 W3        30.08R
COATESVILLE    CLOUDY    70  64  83 N3        30.09S
POTTSTOWN      PTSUNNY   69  63  81 NW6       30.08S
BLUE BELL      MOSUNNY   64  61  88 CALM      30.07S
DOYLESTOWN     MOSUNNY   67  59  75 N6        30.06S
WILLOW GROVE   NOT AVBL
NORTH PHILA    MOSUNNY   71  56  58 N8        30.06S
PHILADELPHIA   PTSUNNY   72  54  53 N14       30.05S
$$



USA.gov is the U.S. government's official web portal to all federal, state and local government web resources and services.